Weather History for Pagosa Springs, CO

Change the Weather History Date:

Monday, October 22, 2012

  Actual Average (KDRO) Record (KDRO)
Temperature  
Mean Temperature 46 °F 44 °F  
Max Temperature 61 °F 60 °F 79 °F (2003)
Min Temperature 30 °F 29 °F 10 °F (1996)
Degree Days  
Heating Degree Days 20 21  
Month to date heating degree days 361  
Since 1 July heating degree days 585  
Cooling Degree Days 0 0  
Month to date cooling degree days 0  
Year to date cooling degree days 243  
Moisture  
Dew Point 24 °F    
Average Humidity 47    
Maximum Humidity 79    
Minimum Humidity 22    
Precipitation  
Precipitation 0.00 in 0.03 in 1.20 in (1974)
Month to date precipitation 1.01  
Year to date precipitation 12.89  
Sea Level Pressure  
Sea Level Pressure 30.10 in    
Wind  
Wind Speed 2 mph (SW)    
Max Wind Speed 13 mph    
Max Gust Speed 21 mph    
Visibility 10 miles    
Events      
T = Trace of Precipitation, MM = Missing Value Source: NWS Daily Summary

Daily Weather History Graph

Daily Weather History Graph

Search for Another Location

Airport:

Trip Planner

Search our weather history database for the weather conditions in past years. The results will help you decide how hot, cold, wet, or windy it might be!

Date:

Astronomy

Oct. 22, 2012 Rise Set
Actual Time 7:23 AM MDT 6:21 PM MDT
Civil Twilight 6:56 AM MDT 6:47 PM MDT
Nautical Twilight 6:26 AM MDT 7:18 PM MDT
Astronomical Twilight 5:56 AM MDT 7:48 PM MDT
Moon 2:23 PM MDT (10/22) 12:22 AM MDT (10/22)
Length of Visible Light 11h 51m
Length of Day
10h 57m
First Quarter, 57% of the Moon is Illuminated
Oct 22
First Quarter
Oct 29
Full
Nov 6
Last Quarter
Nov 13
New
Nov 20
First Quarter

Hourly Weather History & Observations

Time (MDT) Temp. Windchill Dew Point Humidity Pressure Visibility Wind Dir Wind Speed Gust Speed Precip Events Conditions
12:15 AM 37.8 °F - 24.8 °F 60% 30.09 in 10.0 mi Calm Calm - N/A   Clear
12:35 AM 38.1 °F - 24.6 °F 58% 30.09 in 10.0 mi Calm Calm - N/A   Clear
12:55 AM 36.1 °F - 24.3 °F 62% 30.09 in 10.0 mi Calm Calm - N/A   Clear
1:15 AM 35.6 °F - 25.0 °F 65% 30.09 in 10.0 mi Calm Calm - N/A   Clear
1:35 AM 37.4 °F - 26.6 °F 65% 30.08 in 10.0 mi Calm Calm - N/A   Clear
1:55 AM 35.1 °F - 25.0 °F 67% 30.08 in 10.0 mi Calm Calm - N/A   Clear
2:15 AM 34.2 °F - 25.0 °F 69% 30.09 in 10.0 mi Calm Calm - N/A   Clear
2:55 AM 35.1 °F - 25.3 °F 68% 30.09 in 10.0 mi Calm Calm - N/A   Clear
3:15 AM 36.7 °F 34.1 °F 25.9 °F 65% 30.09 in 10.0 mi West 3.5 mph - N/A   Clear
3:35 AM 31.5 °F - 23.5 °F 73% 30.09 in 10.0 mi Calm Calm - N/A   Clear
3:55 AM 32.4 °F - 24.6 °F 73% 30.09 in 10.0 mi Calm Calm - N/A   Clear
4:15 AM 33.6 °F - 25.3 °F 72% 30.09 in 10.0 mi Calm Calm - N/A   Clear
4:35 AM 33.1 °F - 24.6 °F 71% 30.09 in 10.0 mi Calm Calm - N/A   Clear
4:55 AM 33.1 °F 30.0 °F 25.0 °F 72% 30.09 in 10.0 mi NE 3.5 mph - N/A   Clear
5:15 AM 32.2 °F - 24.8 °F 74% 30.09 in 10.0 mi Calm Calm - N/A   Clear
5:35 AM 32.0 °F - 24.1 °F 73% 30.09 in 10.0 mi Calm Calm - N/A   Clear
6:15 AM 30.2 °F - 24.4 °F 79% 30.10 in 10.0 mi Calm Calm - N/A   Clear
6:35 AM 30.9 °F - 24.1 °F 76% 30.10 in 10.0 mi Calm Calm - N/A   Clear
7:15 AM 32.0 °F - 25.2 °F 76% 30.10 in 10.0 mi Calm Calm - N/A   Clear
7:35 AM 31.8 °F - 25.2 °F 76% 30.11 in 10.0 mi Calm Calm - N/A   Clear
7:55 AM 32.0 °F 28.7 °F 25.9 °F 78% 30.12 in 10.0 mi NE 3.5 mph - N/A   Clear
8:15 AM 35.8 °F - 26.4 °F 69% 30.13 in 10.0 mi Calm Calm - N/A   Clear
8:35 AM 40.3 °F - 26.6 °F 58% 30.14 in 10.0 mi Calm Calm - N/A   Clear
8:55 AM 42.3 °F - 26.6 °F 54% 30.14 in 10.0 mi Calm Calm - N/A   Clear
9:15 AM 44.1 °F 42.5 °F 27.0 °F 51% 30.15 in 10.0 mi East 3.5 mph - N/A   Clear
9:35 AM 46.6 °F - 26.8 °F 46% 30.15 in 10.0 mi Calm Calm - N/A   Clear
9:55 AM 48.4 °F - 26.6 °F 43% 30.15 in 10.0 mi Calm Calm - N/A   Clear
10:15 AM 50.9 °F - 25.7 °F 38% 30.15 in 10.0 mi ESE 4.6 mph - N/A   Clear
10:35 AM 51.4 °F - 25.7 °F 37% 30.14 in 10.0 mi Calm Calm - N/A   Clear
10:55 AM 52.0 °F - 25.9 °F 36% 30.14 in 10.0 mi Calm Calm - N/A   Clear
11:15 AM 53.4 °F - 26.1 °F 35% 30.14 in 10.0 mi SSW 4.6 mph - N/A   Clear
11:35 AM 54.3 °F - 25.7 °F 33% 30.14 in 10.0 mi Calm Calm - N/A   Clear
11:55 AM 55.4 °F - 26.2 °F 33% 30.12 in 10.0 mi WSW 4.6 mph - N/A   Clear
12:15 PM 56.7 °F - 23.4 °F 28% 30.12 in 10.0 mi SW 6.9 mph - N/A   Clear
12:35 PM 57.9 °F - 23.9 °F 27% 30.11 in 10.0 mi West 6.9 mph 16.1 mph N/A   Clear
12:55 PM 57.0 °F - 24.8 °F 29% 30.10 in 10.0 mi Calm Calm - N/A   Clear
1:15 PM 58.3 °F - 24.3 °F 27% 30.09 in 10.0 mi SSW 5.8 mph - N/A   Clear
1:35 PM 58.8 °F - 23.2 °F 25% 30.08 in 10.0 mi SSW 6.9 mph 17.3 mph N/A   Clear
1:55 PM 59.5 °F - 22.8 °F 24% 30.07 in 10.0 mi WSW 9.2 mph - N/A   Clear
2:15 PM 60.4 °F - 23.7 °F 24% 30.07 in 10.0 mi SW 8.1 mph 18.4 mph N/A   Clear
2:35 PM 61.2 °F - 23.2 °F 23% 30.07 in 10.0 mi SSW 9.2 mph 19.6 mph N/A   Clear
2:55 PM 61.0 °F - 21.6 °F 22% 30.07 in 10.0 mi SW 11.5 mph - N/A   Clear
3:15 PM 60.6 °F - 21.4 °F 22% 30.07 in 10.0 mi SW 8.1 mph 17.3 mph N/A   Clear
3:35 PM 60.4 °F - 21.7 °F 23% 30.06 in 10.0 mi WSW 11.5 mph - N/A   Clear
3:55 PM 60.1 °F - 22.3 °F 23% 30.06 in 10.0 mi WSW 12.7 mph 16.1 mph N/A   Clear
4:15 PM 60.6 °F - 23.0 °F 24% 30.06 in 10.0 mi West 9.2 mph 16.1 mph N/A   Clear
4:35 PM 60.8 °F - 23.9 °F 24% 30.06 in 10.0 mi SW 11.5 mph 17.3 mph N/A   Clear
4:55 PM 60.1 °F - 23.2 °F 24% 30.06 in 10.0 mi SW 11.5 mph 20.7 mph N/A   Clear
5:15 PM 60.1 °F - 23.0 °F 24% 30.07 in 10.0 mi SW 12.7 mph - N/A   Clear
5:35 PM 59.7 °F - 23.9 °F 25% 30.07 in 10.0 mi WSW 9.2 mph - N/A   Clear
5:55 PM 59.2 °F - 23.0 °F 25% 30.07 in 10.0 mi WSW 10.4 mph - N/A   Clear
6:15 PM 57.4 °F - 21.9 °F 25% 30.07 in 10.0 mi WSW 4.6 mph - N/A   Clear
6:35 PM 54.9 °F - 22.1 °F 28% 30.07 in 10.0 mi Calm Calm - N/A   Clear
6:55 PM 49.5 °F - 21.6 °F 33% 30.08 in 10.0 mi Calm Calm - N/A   Clear
7:55 PM 46.2 °F - 22.3 °F 39% 30.09 in 10.0 mi Calm Calm - N/A   Clear
8:15 PM 47.5 °F - 24.3 °F 40% 30.09 in 10.0 mi Calm Calm - N/A   Clear
8:35 PM 44.1 °F - 23.9 °F 45% 30.10 in 10.0 mi Calm Calm - N/A   Clear
8:55 PM 41.5 °F - 23.0 °F 48% 30.10 in 10.0 mi Calm Calm - N/A   Clear
9:15 PM 40.1 °F - 23.4 °F 51% 30.10 in 10.0 mi Calm Calm - N/A   Clear
9:35 PM 40.3 °F - 22.6 °F 49% 30.10 in 10.0 mi Calm Calm - N/A   Clear
9:55 PM 39.7 °F - 22.8 °F 51% 30.10 in 10.0 mi Calm Calm - N/A   Clear
10:15 PM 43.5 °F - 23.5 °F 45% 30.10 in 10.0 mi Calm Calm - N/A   Clear
10:35 PM 38.7 °F - 23.7 °F 55% 30.10 in 10.0 mi Calm Calm - N/A   Clear
10:55 PM 40.1 °F - 24.1 °F 53% 30.10 in 10.0 mi Calm Calm - N/A   Clear
11:15 PM 38.3 °F - 25.0 °F 59% 30.10 in 10.0 mi Calm Calm - N/A   Clear
11:35 PM 38.1 °F - 24.6 °F 58% 30.10 in 10.0 mi Calm Calm - N/A   Clear